Regional Weather Roundup
Issued by NWS

Home | Current Version | Previous Version | Text Only | Print | Product List | Glossary On
Versions: 1 2 3 4 5 6 7 8 9 10 11 12 13 14 15 16 17 18 19 20 21 22 23 24 25 26 27 28 29 30 31 32 33 34 35 36 37 38 39 40 41 42 43 44 45 46 47 48 49 50
000
ASUS44 KFWD 181315
RWRTX
NORTH TEXAS HOURLY WEATHER ROUNDUP
NATIONAL WEATHER SERVICE FORT WORTH TX
700 AM CST MON DEC 18 2017

NOTE: "FAIR" INDICATES FEW OR NO CLOUDS BELOW 12,000 FEET WITH NO
SIGNIFICANT WEATHER AND/OR OBSTRUCTIONS TO VISIBILITY.

TXZ118-119-181400-
DALLAS/FORT WORTH METROPLEX

CITY           SKY/WX    TMP DP  RH WIND       PRES   REMARKS
DFW AIRPORT    FOG       49  47  93 SE5       30.16R VSB 1/4
DALLAS LOVE    CLOUDY    48  47  96 SE6       30.18R FOG
FTW MEACHAM    FOG       48  48 100 SE7       30.17R VSB 1/4
DAL-EXECUTIVE  FOG       45  45 100 E5        30.17S VSB 1
FTW-ALLIANCE   DRZL/FOG  47  47 100 SE7       30.16S VSB 1/4
FTW-NAS-JRB    CLOUDY    48  46  93 SE7       30.18R FOG
FTW-SPINKS     CLOUDY    46  45  93 SE6       30.19R VSB 1
ARLINGTON      CLOUDY    46  46 100 SE6       30.17S FOG
GRAND PRAIRIE  CLOUDY    47  47 100 CALM      30.19R
ADDISON        FOG       46  46 100 CALM      30.18R VSB 3/8
MESQUITE       CLOUDY    46  46 100 CALM      30.19S FOG
LANCASTER      CLOUDY    46  46  97 CALM      30.19S FOG
$$

TXZ091>094-102>105-117-120-121-131>134-181400-
NORTH CENTRAL TEXAS

CITY           SKY/WX    TMP DP  RH WIND       PRES   REMARKS
SHRMAN/DENISON CLOUDY    46  45  99 CALM      30.19R FOG
GAINESVILLE    FOG       45  45  98 CALM      30.18R VSB 1/2
BOWIE          FOG       44  44 100 SE5       30.15R VSB 1/4
BRIDGEPORT     FOG       46  46 100 SE5       30.17S VSB 1/4
DECATUR        FOG       46  45  97 E6        30.15R VSB<1/4
DENTON         FOG       47  47 100 SE7       30.16S VSB 3/4
MCKINNEY       FOG       46  46 100 E5        30.18R VSB 3/4
BONHAM         FOG       44  44  99 SE3       30.19R VSB 1/2
GREENVILLE     CLOUDY    50  50 100 CALM      30.19S FOG
ROCKWALL       FOG       47  47 100 CALM      30.18S VSB 1/2
TERRELL        CLOUDY    48  46  93 CALM      30.19R FOG
WAXAHACHIE     FOG       45  45 100 CALM      30.19R VSB 3/4
GRANBURY       CLOUDY    47  46  95 SE6       30.18S FOG
$$

TXZ083>090-098>101-113>116-127>130-139>142-154-155-181400-
WESTERN NORTH TEXAS

CITY           SKY/WX    TMP DP  RH WIND       PRES   REMARKS
WICHITA FALLS  FOG       39  38  96 SE5       30.14S VSB 1/4 WCI  36
WF-KICKAPOO    LGT RAIN  40  40 100 SE5       30.17R VSB 1/4 WCI  37
VERNON         CLOUDY    32  30  92 CALM      30.15R VSB 1/4
ABILENE        FOG       36  36 100 SE8       30.11S VSB 1/2 WCI  30
ABILENE-DYESS  CLOUDY    35  32  90 CALM      30.11R
GRAHAM         FOG       44  32  63 SE5       30.14R VSB 1/2
BRECKENRIDGE   FOG       39  39 100 CALM      30.14S VSB 1/4
CISCO          FOG       36  36 100 SE6       30.13R VSB<1/4 WCI  31
EASTLAND       FOG       40  40  99 E3        30.14S VSB 1/4
RANGER         FOG       40  40 100 CALM      30.14S VSB<1/4
MINERAL WELLS  FOG       45  44  97 SE9       30.15R VSB 1/4
STEPHENVILLE   CLOUDY    45  43  95 E3        30.17S VSB 1/4
COMANCHE       FOG       44  44 100 E5        30.15R VSB 1/4
COLEMAN        FOG       42  42  98 CALM      30.13R VSB<1/4
$$

TXZ143>147-156>162-174-175-181400-
CENTRAL TEXAS

CITY           SKY/WX    TMP DP  RH WIND       PRES   REMARKS
WACO           FOG       48  47  96 NE6       30.18R VSB 1/4
WACO-TSTC      FOG       46  46 100 CALM      30.19  VSB 3/4
WACO-MCGREGOR  FOG       48  48 100 N5        30.17S VSB 3/4
HILLSBORO      CLOUDY    47  47 100 CALM      30.18R FOG
CORSICANA      CLOUDY    48  48 100 N3        30.20R FOG
MEXIA          FOG       48  47  97 CALM      30.18R VSB 1/2
HEARNE         CLOUDY    50  50 100 CALM      30.18R FOG
CAMERON        FOG       51  50  99 CALM      30.17R VSB 1/4
TEMPLE         CLOUDY    48  48 100 E5        30.17R FOG
KILLEEN        FOG       48  48 100 NW5       30.13S VSB 3/8
KILLEEN-SKYLRK FOG       48  47  96 N3        30.16R VSB 1/2
FORT HOOD      FOG       47  47 100 N6        30.11S VSB 3/8
GATESVILLE     FOG       46  46 100 CALM      30.17F VSB 1/4
HAMILTON       FOG       46  46 100 SE6       30.16R VSB 1/4
LAMPASAS       FOG       45  45  99 CALM      30.14R VSB 1/4
$$

TXZ095>097-106>112-122>126-135>138-148>153-164>167-181400-
EAST TEXAS

CITY           SKY/WX    TMP DP  RH WIND       PRES   REMARKS
PARIS          CLOUDY    46  45  96 SE3       30.19F
SULPHUR SPRNGS CLOUDY    49  49  98 CALM      30.20S
MOUNT PLEASANT CLOUDY    48  48 100 CALM      30.22R
GILMER         FOG       46  46 100 CALM      30.20R VSB 3/4
MINEOLA        FOG       48  48 100 CALM      30.20R VSB 1
TYLER          FOG       49  49 100 NE3       30.19R VSB 1
LONGVIEW       FOG       48  48 100 CALM      30.20R VSB 3/4
MARSHALL       CLOUDY    47  46  94 CALM      30.22R
ATHENS         FOG       45  45 100 CALM      30.19R VSB 1/2
PALESTINE      FOG       49  49 100 CALM      30.20R VSB 1
JACKSONVILLE   CLOUDY    49  49 100 CALM      30.21R FOG
HENDERSON      CLOUDY    49  49 100 N3        30.21R FOG
CENTER         CLOUDY    48  47  95 CALM      30.21R FOG
NACOGDOCHES    CLOUDY    50  50 100 CALM      30.20R
LUFKIN         FOG       51  51 100 CALM      30.20R VSB 1
$$

SUPPLEMENTAL OBSERVATIONS (NWS FORT WORTH AREA)

CITY           SKY/WX    TMP DP  RH WIND       PRES   REMARKS
DENISON DAM      N/A     46  45  93 SE2         N/A
CADDO GRASSLND   N/A     46  45  93 SE1         N/A
PAT MAYSE LAKE   N/A     45  43  93 NE1         N/A
GREENVILLE       N/A     46  45  93 E2          N/A
CEDAR HILL       N/A     46  45  93 SE1         N/A
LBJ GRASSLAND    N/A     45  43  93 SE6         N/A
COMANCHE         N/A     45  43  93 E7          N/A
MCGREGOR         N/A     48  46  93 NE2         N/A
LAKE LIMESTONE   N/A     48  46  93 NE2         N/A
ATHENS           N/A     46  45  93 CALM        N/A
$$

SUPPLEMENTAL OBSERVATIONS (NWS NORMAN AREA)

CITY           SKY/WX    TMP DP  RH WIND       PRES   REMARKS
GOODLETT         N/A     31  29  92 SW2       30.13R
ODELL            N/A     27  27  99 S1        30.16R
CROWELL          N/A     33  31  93 W1        30.15R
KNOX CITY        N/A     28  25  87 W3        30.15S
SEYMOUR          N/A     30  28  91 CALM      30.15R
MILLERS CREEK    N/A     32  28  86 SW3         N/A
$$

SUPPLEMENTAL OBSERVATIONS (NWS SAN ANGELO AREA)

CITY           SKY/WX    TMP DP  RH WIND       PRES   REMARKS
WEINERT          N/A     31  26  84 CALM      30.15R
HASKELL          N/A     32  29  88 N1        30.15R
THROCKMORTON     N/A     37  37 100 S3        30.16R
STAMFORD         N/A     32  28  86 N6        30.15R WCI  26
CLYDE            N/A     40  40  99 SE7       30.12S WCI  36
HAMBY            N/A     32  30  93 NE2         N/A
IVIE RESERVOIR   N/A     43  41  93 E7          N/A  WCI  39
COLORADO BEND    N/A     46  45  93 SE5         N/A
$$

SUPPLEMENTAL OBSERVATIONS (NWS SHREVEPORT AREA)

CITY           SKY/WX    TMP DP  RH WIND       PRES   REMARKS
CLARKSVILLE      N/A     46  43  87 CALM        N/A
TEXARKANA        N/A     46  45  93 CALM        N/A
LINDEN           N/A     46  45  93 CALM        N/A
CADDO LAKE       N/A     46  45  93 CALM        N/A
GILMER           N/A     46  45  93 NE1         N/A
HENDERSON        N/A     48  46  93 NE3         N/A
LUFKIN           N/A     52  50  93 MISG        N/A
N SABINE NF      N/A     48  46  93 MISG        N/A
S SABINE NF      N/A     52  50  93 NE2         N/A
$$

SUPPLEMENTAL OBSERVATIONS ARE A COLLECTION OF AUTOMATED INSTRUMENTS
THAT ARE MAINTAINED BY A VARIETY OF FEDERAL AND STATE AGENCIES.
CERTAIN ELEMENTS...SUCH AS HUMIDITY VALUES AND SUSTAINED WIND
SPEEDS...MAY BE APPROXIMATED.





USA.gov is the U.S. government's official web portal to all federal, state and local government web resources and services.